Change the Weather History Date:

Friday, November 2, 2012

  Actual Average Record
Temperature  
Mean Temperature 63 °F -  
Max Temperature 81 °F 73 °F 82 °F (1997)
Min Temperature 45 °F 38 °F 28 °F (1999)
Degree Days  
Heating Degree Days 2    
Growing Degree Days 13 (Base 50)    
Moisture  
Dew Point 33 °F    
Average Humidity 35    
Maximum Humidity 87    
Minimum Humidity 7    
Precipitation  
Precipitation 0.00 in - - ()
Sea Level Pressure  
Sea Level Pressure 30.00 in    
Wind  
Wind Speed 3 mph ()    
Max Wind Speed 12 mph    
Max Gust Speed -    
Visibility 12.3 miles    
Events      
Averages and records for this station are not official NWS values.
T = Trace of Precipitation, MM = Missing Value Source: Averaged Metar Reports

Daily Weather History Graph

Daily Weather History Graph

Search for Another Location

Airport or City:

Trip Planner

Search our weather history database for the weather conditions in past years. The results will help you decide how hot, cold, wet, or windy it might be!

Date:

Astronomy

Nov. 02, 2012 Rise Set
Actual Time 7:05 AM CST 6:17 PM CST
Civil Twilight 6:41 AM CST 6:41 PM CST
Nautical Twilight 6:14 AM CST 7:08 PM CST
Astronomical Twilight 5:48 AM CST 7:34 PM CST
Moon 9:19 PM CST (11/2) 10:14 AM CST (11/2)
Length of Visible Light 11h 59m
Length of Day
11h 12m
Waning Gibbous, 87% of the Moon is Illuminated
Nov 2
Waning Gibbous
Nov 6
Last Quarter
Nov 13
New
Nov 20
First Quarter
Nov 28
Full

Hourly Weather History & Observations

Time (CST) Temp. Windchill Dew Point Humidity Pressure Visibility Wind Dir Wind Speed Gust Speed Precip Events Conditions
2:55 AM 53 °F - 39 °F 48% 29.86 in 6 mi Calm Calm - -  
5:55 AM 47 °F - 38 °F 60% 29.93 in 6 mi Calm Calm - -  
5:57 AM 41.0 °F - 37.4 °F 87% 29.98 in 10.0 mi Calm Calm - N/A   Clear
6:45 AM 39.2 °F 35.0 °F 35.6 °F 87% 30.20 in 10.0 mi South 5.8 mph - N/A   Clear
7:46 AM 42.8 °F 41.1 °F 35.6 °F 76% 30.21 in 12.0 mi SSE 3.5 mph - N/A   Clear
8:50 AM 54 °F - 36 °F 38% 30.04 in 19 mi Calm Calm - -  
8:51 AM 53.6 °F - 37.4 °F 54% 29.96 in 12.0 mi South 6.9 mph - N/A   Clear
9:47 AM 62.6 °F - 37.4 °F 39% 30.23 in 12.0 mi SSW 9.2 mph - N/A   Clear
10:44 AM 68.0 °F - 35.6 °F 30% 30.24 in 14.0 mi SSW 4.6 mph - N/A   Clear
11:45 AM 69 °F - 39 °F 23% 29.97 in 19 mi SW 2.2 mph - -  
11:50 AM 71.6 °F - 21.2 °F 15% 29.89 in 14.0 mi SSW 5.8 mph - N/A   Clear
12:48 PM 75.2 °F - 26.6 °F 17% 30.18 in 14.0 mi SSE 8.1 mph - N/A   Clear
1:45 PM 77.0 °F - 24.8 °F 14% 30.14 in 14.0 mi South 4.6 mph - N/A   Clear
2:40 PM 77 °F - 33 °F 11% 29.81 in 25 mi ESE 4.5 mph - -   Scattered Clouds
2:41 PM 77.0 °F - 35.6 °F 22% 29.81 in 14.0 mi South 4.6 mph - N/A   Clear
3:46 PM 77.0 °F - 24.8 °F 14% 30.08 in 14.0 mi NE 6.9 mph - N/A   Clear
4:45 PM 77.0 °F - 24.8 °F 14% 30.07 in 14.0 mi East 5.8 mph - N/A   Clear
5:43 PM 71.6 °F - 24.8 °F 17% 29.83 in 14.0 mi NE 6.9 mph - N/A   Clear
5:50 PM 72 °F - 22 °F 7% 29.71 in 19 mi SSE 2.2 mph - -   Scattered Clouds
6:40 PM 64.4 °F - 23.0 °F 21% 30.10 in 14.0 mi Calm Calm - N/A   Clear
7:40 PM 57.2 °F - 33.8 °F 41% 30.11 in 10.0 mi South 11.5 mph - N/A   Clear
8:50 PM 63 °F - 43 °F 36% 29.75 in 6 mi WSW 2.2 mph - -  
9:45 PM 57.2 °F - - N/A% 30.18 in 10.0 mi South 11.5 mph - N/A   Clear
11:50 PM 59 °F - 42 °F 43% 29.79 in 6 mi WSW 2.2 mph - -   Clear